Simultaneous Nadir Overpasses (SNOs) Predictions

Prediction of SNOs between METOP-A and NOAA-19 Satellite Orbit:

Table of predicted SNOs for the next 14.0 days since TLE Epoch: 3/27/2021
Index Date (METOP-A) Time (METOP-A) Lat,Lon (METOP-A) SZA (METOP-A ) Date (NOAA-19) Time (NOAA-19) Lat,Lon (NOAA-19) SZA (NOAA-19 ) Distance(km) Time Diff (sec)
1 03/28/2021 06:48:28 -80.86, -91.08 102.17 03/28/2021 06:47:19 -80.86, -91.25 102.18 3.03 69
2 03/28/2021 07:39:09 80.85, 76.16 77.82 03/28/2021 07:38:13 80.86, 76.32 77.82 2.78 56
3 03/28/2021 08:29:50 -80.85,-116.57 102.21 03/28/2021 08:29:19 -80.86,-116.60 102.20 1.12 31
4 03/28/2021 09:20:30 80.86, 51.02 77.81 03/28/2021 09:20:13 80.86, 50.97 77.80 1.25 17
5 03/28/2021 10:11:11 -80.86,-141.72 102.22 03/28/2021 10:11:18 -80.85,-141.57 102.22 2.58 7
6 03/28/2021 11:01:52 80.85, 25.52 77.77 03/28/2021 11:02:13 80.86, 25.62 77.77 1.74 21
7 03/28/2021 11:52:33 -80.85,-167.21 102.26 03/28/2021 11:53:19 -80.86,-167.29 102.25 1.61 46
8 03/28/2021 12:43:13 80.87, 0.38 77.76 03/28/2021 12:44:13 80.85, 0.27 77.75 2.26 60
9 04/08/2021 08:52:28 80.87, 57.86 73.63 04/08/2021 08:51:13 80.86, 57.77 73.61 2.16 75
10 04/08/2021 09:43:10 -80.85,-135.11 106.41 04/08/2021 09:42:18 -80.86,-134.97 106.41 2.54 52
11 04/08/2021 10:33:50 80.86, 32.36 73.59 04/08/2021 10:33:13 80.86, 32.43 73.59 1.17 37
12 04/08/2021 11:24:31 -80.86,-160.26 106.42 04/08/2021 11:24:18 -80.86,-160.33 106.43 1.37 13
13 04/08/2021 12:15:12 80.85, 6.87 73.55 04/08/2021 12:15:14 80.86, 6.70 73.55 2.99 2
14 04/08/2021 13:05:52 -80.85, 174.24 106.46 04/08/2021 13:06:17 -80.86, 174.32 106.45 1.40 25
15 04/08/2021 13:56:32 80.86, -18.28 73.54 04/08/2021 13:57:12 80.86, -18.27 73.54 0.78 40



Historial Predications of SNOs between METOP-A and NOAA-19
